CW2157 Weather Reports


time (UTC)temp
C
wind
direction
speed
KPH
gust
KPH
rain 1hr
cm
rain 24hr
cm
rain mn
cm
humidity
%
barometer
mb
20260903151705 28 190 16.1 24.1 0.00 0.25 0.00 85 1015.1
20260903151205 28 208 14.5 19.3 0.00 0.25 0.00 85 1015.0
20260903150705 27 207 14.5 19.3 0.00 0.25 0.00 86 1015.1
20260903150204 27 202 11.3 19.3 0.00 0.25 0.00 85 1015.0
20260903145705 27 203 14.5 19.3 0.00 0.25 0.00 85 1015.1
20260903145205 27 208 14.5 19.3 0.00 0.25 0.00 86 1015.1
20260903144705 27 195 9.7 19.3 0.00 0.25 0.00 87 1015.0
20260903144204 27 198 9.7 19.3 0.00 0.25 0.00 86 1015.0
20260903143705 27 201 14.5 16.1 0.00 0.25 0.00 86 1015.0
20260903142705 27 204 9.7 16.1 0.00 0.25 0.00 86 1014.7
20260903142205 27 209 11.3 19.3 0.00 0.25 0.00 84 1014.5
20260903141705 27 176 14.5 24.1 0.00 0.25 0.00 84 1014.2
20260903141205 27 164 16.1 22.5 0.00 0.25 0.00 85 1014.4
20260903140205 26 178 14.5 22.5 0.00 0.25 0.00 88 1014.4
20260903135705 26 165 6.4 14.5 0.00 0.25 0.00 90 1015.0
20260903135205 26 182 9.7 12.9 0.00 0.25 0.00 91 1015.1
20260903134705 25 155 8.0 12.9 0.00 0.25 0.00 93 1015.0
20260903133705 25 156 6.4 14.5 0.00 0.25 0.00 93 1015.2
20260903132206 25 173 9.7 19.3 0.00 0.25 0.00 93 1015.3
20260903131705 24 165 8.0 12.9 0.00 0.25 0.00 93 1015.6
20260903131205 24 173 8.0 12.9 0.00 0.25 0.00 93 1015.6
20260903130705 24 174 4.8 8.0 0.00 0.25 0.00 93 1015.9
20260903130205 24 145 1.6 4.8 0.00 0.25 0.00 93 1016.0
20260903125705 24 119 3.2 4.8 0.00 0.25 0.00 93 1016.1
20260903124705 23 142 3.2 4.8 0.00 0.25 0.00 93 1016.2
20260903124205 23 61 1.6 4.8 0.00 0.25 0.00 93 1016.4
20260903123705 23 57 1.6 4.8 0.00 0.25 0.00 93 1016.6
20260903122705 23 36 1.6 4.8 0.00 0.25 0.00 93 1016.5
20260903122205 23 69 3.2 4.8 0.00 0.25 0.00 93 1016.4
20260903121704 23 56 3.2 4.8 0.00 0.25 0.00 93 1016.2
20260903121204 23 85 3.2 4.8 0.00 0.25 0.00 93 1016.2
20260903120704 23 89 4.8 9.7 0.00 0.25 0.00 93 1016.3
20260903115705 23 99 3.2 4.8 0.00 0.25 0.00 93 1016.3
20260903115205 23 29 4.8 11.3 0.00 0.25 0.00 93 1016.5
20260903114704 23 58 9.7 14.5 0.00 0.25 0.00 93 1016.4
20260903114204 23 58 8.0 12.9 0.00 0.25 0.00 93 1016.3
20260903113705 23 45 9.7 12.9 0.00 0.25 0.00 93 1016.5
20260903113205 23 63 6.4 11.3 0.00 0.25 0.00 93 1016.2
20260903112705 23 64 6.4 11.3 0.00 0.25 0.00 93 1016.3
20260903111205 23 57 8.0 12.9 0.00 0.25 0.00 93 1016.0
20260903110704 23 27 6.4 9.7 0.00 0.25 0.00 93 1015.9
20260903110205 23 356 4.8 11.3 0.00 0.25 0.00 93 1015.4
20260903105705 23 88 3.2 4.8 0.00 0.25 0.00 93 1015.0
20260903103705 23 153 4.8 11.3 0.00 0.25 0.00 93 1014.7
20260903103205 23 145 6.4 11.3 0.00 0.25 0.00 93 1014.7
20260903102705 23 149 4.8 11.3 0.00 0.25 0.00 93 1014.7
20260903102205 23 153 3.2 8.0 0.00 0.25 0.00 93 1014.8
20260903101705 23 144 3.2 4.8 0.00 0.25 0.00 93 1014.9
20260903101204 23 90 3.2 4.8 0.00 0.25 0.00 93 1014.9
20260903100705 23 99 4.8 12.9 0.00 0.25 0.00 94 1015.0
20260903095205 23 102 6.4 11.3 0.00 0.25 0.00 93 1015.1
20260903094704 23 78 4.8 8.0 0.00 0.25 0.00 93 1015.2
20260903094204 23 70 4.8 8.0 0.00 0.25 0.00 93 1015.2
20260903093704 23 76 4.8 8.0 0.00 0.25 0.00 93 1015.3
20260903093205 23 86 3.2 4.8 0.00 0.25 0.00 93 1015.2
20260903092205 23 65 4.8 8.0 0.00 0.25 0.00 93 1015.1
20260903091705 23 71 6.4 8.0 0.00 0.25 0.00 93 1015.2
20260903091204 23 73 4.8 8.0 0.00 0.25 0.00 93 1015.2
20260903090705 23 73 4.8 4.8 0.00 0.25 0.00 93 1015.1
20260903085705 23 96 6.4 9.7 0.00 0.25 0.00 93 1015.0
20260903084705 23 67 6.4 9.7 0.00 0.25 0.00 93 1015.0
20260903084205 24 63 4.8 9.7 0.00 0.25 0.00 94 1015.0
20260903083704 24 88 4.8 8.0 0.00 0.25 0.00 94 1015.0
20260903083204 24 113 3.2 9.7 0.00 0.25 0.00 94 1015.0
20260903082704 24 117 4.8 9.7 0.00 0.25 0.00 94 1015.1
20260903082204 23 93 3.2 8.0 0.00 0.25 0.00 93 1015.3
20260903081704 23 106 3.2 4.8 0.00 0.25 0.00 93 1015.3
20260903081205 23 93 4.8 8.0 0.00 0.25 0.00 93 1015.3
20260903080705 23 43 4.8 8.0 0.00 0.25 0.00 93 1015.3
20260903075705 24 75 4.8 4.8 0.00 0.25 0.00 94 1015.1
20260903075204 24 122 1.6 4.8 0.00 0.25 0.00 94 1015.1
20260903074704 24 109 1.6 4.8 0.00 0.25 0.00 94 1015.1
20260903074205 23 150 3.2 4.8 0.00 0.25 0.00 94 1015.0
20260903073705 23 118 3.2 4.8 0.00 0.25 0.00 94 1015.0
20260903073205 23 144 1.6 4.8 0.00 0.25 0.00 94 1015.0
20260903072704 23 155 3.2 4.8 0.00 0.25 0.00 94 1014.9
20260903072204 23 140 1.6 4.8 0.00 0.25 0.00 94 1014.8
20260903071705 23 145 3.2 4.8 0.00 0.25 0.00 94 1014.8
20260903070205 23 136 3.2 4.8 0.00 0.25 0.00 94 1014.8
20260903065705 23 137 3.2 11.3 0.00 0.25 0.00 94 1014.8
20260903065205 23 109 4.8 11.3 0.00 0.25 0.00 94 1014.8
20260903064705 23 113 1.6 4.8 0.00 0.25 0.00 94 1014.9
20260903063705 23 166 4.8 11.3 0.00 0.25 0.00 93 1014.7
20260903062705 23 182 4.8 9.7 0.00 0.25 0.00 94 1014.7
20260903062204 23 139 4.8 9.7 0.00 0.25 0.00 94 1014.7
20260903061705 23 181 4.8 9.7 0.00 0.25 0.00 94 1014.7
20260903060704 23 121 3.2 4.8 0.00 0.25 0.00 94 1015.0
20260903060204 23 149 3.2 8.0 0.00 0.25 0.00 94 1015.0
20260903055705 23 112 4.8 9.7 0.00 0.25 0.00 94 1015.0
20260903055204 23 135 3.2 11.3 0.00 0.25 0.00 94 1015.1
20260903054705 23 149 3.2 8.0 0.00 0.25 0.00 94 1015.1
20260903053704 23 90 3.2 9.7 0.00 0.25 0.00 94 1015.2
20260903053204 23 123 6.4 11.3 0.00 0.25 0.00 94 1015.1
20260903052704 23 147 3.2 4.8 0.00 0.25 0.00 94 1015.1
20260903052205 23 102 1.6 4.8 0.00 0.25 0.00 94 1015.2
20260903051704 23 135 3.2 8.0 0.00 0.25 0.00 94 1015.2
20260903051205 23 142 3.2 4.8 0.00 0.25 0.00 94 1015.0
20260903050704 23 88 3.2 4.8 0.00 0.25 0.00 94 1015.1
20260903050204 23 111 3.2 4.8 0.00 0.25 0.00 94 1015.1
20260903045705 23 95 4.8 4.8 0.00 0.25 0.00 94 1015.4
20260903045204 23 97 4.8 4.8 0.00 0.25 0.00 93 1015.4
20260903044704 23 74 3.2 4.8 0.00 0.25 0.00 93 1015.7
20260903044205 23 90 3.2 4.8 0.00 0.25 0.00 93 1015.7
20260903043705 23 48 1.6 3.2 0.00 0.25 0.00 93 1015.7
20260903043204 23 16 3.2 4.8 0.00 0.25 0.00 93 1015.7
20260903042705 23 67 1.6 4.8 0.00 0.25 0.00 93 1015.8
20260903042204 23 90 3.2 4.8 0.00 0.25 0.00 93 1015.5
20260903041704 23 44 1.6 4.8 0.00 0.25 0.00 93 1015.5
20260903040705 23 109 0.0 3.2 0.00 0.25 0.00 94 1015.3
20260903040205 23 113 1.6 4.8 0.00 0.25 0.00 94 1015.2
20260903035204 22 99 3.2 4.8 0.00 0.25 0.25 93 1015.3
20260903034704 22 137 1.6 3.2 0.00 0.25 0.25 93 1015.6
20260903034205 22 91 1.6 3.2 0.00 0.25 0.25 93 1015.5
20260903033204 22 78 3.2 4.8 0.00 0.25 0.25 93 1015.7
20260903032204 22 111 0.0 3.2 0.00 0.25 0.25 92 1015.7
20260903031705 22 111 1.6 3.2 0.00 0.25 0.25 92 1015.6
20260903031204 22 23 1.6 3.2 0.00 0.25 0.25 92 1016.0
20260903030705 22 79 1.6 3.2 0.00 0.25 0.25 92 1015.9
20260903030204 22 79 0.0 3.2 0.00 0.25 0.25 92 1016.0
20260903025704 22 78 3.2 4.8 0.00 0.25 0.25 92 1015.8
20260903025204 22 84 3.2 4.8 0.00 0.25 0.25 92 1015.8
20260903024705 22 48 0.0 3.2 0.00 0.25 0.25 92 1015.8
20260903023204 22 122 3.2 4.8 0.00 0.25 0.25 93 1015.7
20260903022705 22 126 4.8 4.8 0.00 0.25 0.25 92 1015.7
20260903022205 22 108 1.6 4.8 0.00 0.25 0.25 91 1015.8
20260903021704 22 5 1.6 4.8 0.00 0.25 0.25 91 1015.9
20260903021205 22 90 0.0 3.2 0.00 0.25 0.25 91 1015.8
20260903020705 22 102 1.6 4.8 0.00 0.25 0.25 91 1015.9
20260903020206 22 15 1.6 4.8 0.00 0.25 0.25 92 1015.7
20260903015704 22 114 1.6 3.2 0.00 0.25 0.25 92 1015.8
20260903014704 22 119 1.6 3.2 0.00 0.25 0.25 93 1015.5
20260903014204 22 119 1.6 4.8 0.00 0.25 0.25 93 1015.4
20260903013704 22 114 1.6 3.2 0.00 0.25 0.25 92 1015.6
20260903012704 22 85 0.0 0.0 0.00 0.25 0.25 91 1016.0
20260903011705 22 85 0.0 0.0 0.00 0.25 0.25 91 1016.1
20260903010704 22 65 3.2 4.8 0.00 0.25 0.25 91 1016.0
20260903010205 23 69 3.2 4.8 0.00 0.25 0.25 92 1015.9
20260903005704 23 84 3.2 4.8 0.00 0.25 0.25 92 1015.7
20260903005204 23 83 3.2 4.8 0.00 0.25 0.25 92 1015.7
20260903004705 22 97 3.2 4.8 0.00 0.25 0.25 92 1015.7
20260903004204 22 92 3.2 4.8 0.00 0.25 0.25 91 1015.7
20260903003704 22 96 3.2 4.8 0.00 0.25 0.25 91 1015.6
20260903003205 22 72 3.2 8.0 0.00 0.25 0.25 90 1015.7
20260903002704 22 64 4.8 4.8 0.00 0.25 0.25 90 1015.6
20260903002204 22 74 3.2 4.8 0.00 0.25 0.25 90 1015.6
20260903000704 23 85 3.2 4.8 0.00 0.25 0.25 90 1015.6
20260902235704 23 85 3.2 4.8 0.00 0.25 0.25 90 1015.4
20260902235204 23 22 1.6 4.8 0.00 0.25 0.25 90 1015.5
20260902234204 23 66 1.6 3.2 0.00 0.25 0.25 90 1015.5
20260902233704 23 87 3.2 4.8 0.00 0.25 0.25 90 1015.6
20260902233205 23 87 1.6 4.8 0.00 0.25 0.25 90 1015.7
20260902232705 23 87 1.6 3.2 0.00 0.25 0.25 90 1015.7
20260902231704 23 87 1.6 3.2 0.00 0.25 0.25 90 1015.8
20260902231204 23 87 1.6 3.2 0.00 0.25 0.25 90 1015.8
20260902230704 23 60 0.0 3.2 0.00 0.25 0.25 90 1015.8
20260902230204 23 34 0.0 1.6 0.00 0.25 0.25 90 1015.8
20260902225705 23 34 0.0 3.2 0.00 0.25 0.25 90 1015.6
20260902225204 23 25 1.6 3.2 0.00 0.25 0.25 90 1015.6
20260902224704 23 101 1.6 3.2 0.00 0.25 0.25 90 1015.5
20260902224204 23 101 1.6 3.2 0.00 0.25 0.25 90 1015.5
20260902223704 23 101 1.6 3.2 0.00 0.25 0.25 90 1015.4
20260902223205 23 101 3.2 4.8 0.00 0.25 0.25 90 1015.5
20260902222704 23 83 4.8 4.8 0.00 0.25 0.25 90 1015.5
20260902222205 23 80 3.2 4.8 0.00 0.25 0.25 90 1015.6
20260902221704 23 83 3.2 4.8 0.00 0.25 0.25 90 1015.8
20260902221204 23 66 3.2 4.8 0.00 0.25 0.25 90 1016.0
20260902220704 23 38 3.2 4.8 0.00 0.25 0.25 89 1016.1
20260902220204 23 54 3.2 4.8 0.00 0.25 0.25 89 1016.2
20260902215705 23 304 1.6 4.8 0.00 0.25 0.25 89 1016.3
20260902214704 23 339 0.0 1.6 0.00 0.25 0.25 88 1016.1
20260902214204 23 339 0.0 1.6 0.00 0.25 0.25 88 1016.0
20260902213704 23 339 0.0 1.6 0.00 0.25 0.25 88 1016.1
20260902213205 23 339 1.6 3.2 0.00 0.25 0.25 88 1016.1
20260902212704 23 343 1.6 3.2 0.00 0.25 0.25 88 1016.0
20260902212204 23 276 1.6 4.8 0.00 0.25 0.25 88 1015.9
20260902211704 23 258 4.8 9.7 0.00 0.25 0.25 87 1015.9
20260902211206 23 220 6.4 12.9 0.00 0.25 0.25 87 1016.0
20260902210704 23 216 6.4 11.3 0.00 0.25 0.25 88 1015.9
20260902210204 23 190 8.0 11.3 0.00 0.25 0.25 87 1016.1
20260902205704 24 204 8.0 14.5 0.00 0.25 0.25 88 1016.0
20260902205204 23 218 12.9 16.1 0.00 0.25 0.25 87 1016.1
20260902204704 24 197 9.7 14.5 0.00 0.25 0.25 87 1016.0
20260902204205 24 178 8.0 14.5 0.00 0.25 0.25 87 1016.0
20260902203705 24 195 4.8 9.7 0.00 0.25 0.25 87 1016.0
20260902203204 24 192 4.8 9.7 0.00 0.25 0.25 87 1016.1
20260902202705 24 217 8.0 11.3 0.00 0.25 0.25 89 1016.2
20260902202204 24 199 9.7 14.5 0.00 0.25 0.25 89 1016.3
20260902201704 24 201 11.3 14.5 0.00 0.25 0.25 89 1016.4
20260902201204 23 211 8.0 12.9 0.00 0.25 0.25 89 1016.3
20260902200704 23 199 6.4 9.7 0.00 0.25 0.25 89 1016.4
20260902200205 23 221 3.2 4.8 0.03 0.25 0.25 90 1016.5
20260902195704 23 239 0.0 3.2 0.03 0.25 0.25 89 1016.5
20260902194204 23 163 3.2 4.8 0.03 0.25 0.25 88 1015.9
20260902193704 23 141 4.8 12.9 0.03 0.25 0.25 87 1015.9
20260902192204 24 129 1.6 8.0 0.03 0.25 0.25 88 1015.8
20260902191704 24 236 3.2 4.8 0.03 0.25 0.25 87 1016.0
20260902191204 24 108 3.2 8.0 0.05 0.25 0.25 89 1016.3
20260902190704 24 134 3.2 12.9 0.08 0.25 0.25 89 1016.2
20260902190204 24 129 8.0 16.1 0.15 0.23 0.23 89 1016.3
20260902185207 24 102 8.0 12.9 0.23 0.23 0.23 87 1017.5
20260902184704 24 66 6.4 19.3 0.23 0.23 0.23 87 1017.6
20260902184204 24 88 11.3 19.3 0.23 0.23 0.23 87 1017.2
20260902183704 24 84 11.3 19.3 0.23 0.23 0.23 88 1016.9
20260902183204 24 40 4.8 9.7 0.23 0.23 0.23 86 1017.2
20260902182704 24 17 4.8 8.0 0.23 0.23 0.23 86 1017.1
20260902181704 25 293 6.4 11.3 0.23 0.23 0.23 83 1017.7
20260902180704 26 323 8.0 20.9 0.18 0.18 0.18 78 1018.5
20260902180204 27 344 16.1 46.7 0.08 0.08 0.08 71 1019.0
20260902175704 28 341 19.3 35.4 0.00 0.00 0.00 68 1018.8
20260902175205 30 1 9.7 19.3 0.00 0.00 0.00 72 1018.5
20260902174704 30 341 3.2 9.7 0.00 0.00 0.00 72 1017.8
20260902174204 30 308 0.0 3.2 0.00 0.00 0.00 74 1017.5
20260902173704 30 65 4.8 4.8 0.00 0.00 0.00 72 1017.5
20260902173204 30 27 8.0 11.3 0.00 0.00 0.00 73 1017.2
20260902172704 30 71 1.6 4.8 0.00 0.00 0.00 73 1017.2
20260902172204 30 100 3.2 8.0 0.00 0.00 0.00 73 1017.2
20260902170704 30 56 4.8 8.0 0.00 0.00 0.00 72 1016.9
20260902170205 30 59 3.2 8.0 0.00 0.00 0.00 71 1016.9
20260902165704 30 237 3.2 12.9 0.00 0.00 0.00 72 1016.9
20260902165204 30 27 6.4 9.7 0.00 0.00 0.00 71 1016.8
20260902164704 30 152 4.8 9.7 0.00 0.00 0.00 75 1016.7
20260902164204 30 116 6.4 12.9 0.00 0.00 0.00 75 1016.7
20260902163704 30 55 4.8 12.9 0.00 0.00 0.00 72 1016.7
20260902163204 30 105 4.8 12.9 0.00 0.00 0.00 74 1016.7
20260902162705 30 139 4.8 11.3 0.00 0.00 0.00 74 1016.7
20260902161704 30 72 11.3 19.3 0.00 0.00 0.00 74 1016.7
20260902160704 30 103 4.8 16.1 0.00 0.00 0.00 74 1016.7
20260902160204 30 62 9.7 16.1 0.00 0.00 0.00 74 1016.8
20260902155704 29 2 1.6 8.0 0.00 0.00 0.00 74 1016.9
20260902155204 29 11 8.0 19.3 0.00 0.00 0.00 74 1017.0
20260902154705 29 80 9.7 19.3 0.00 0.00 0.00 76 1016.9
20260902154204 29 26 8.0 19.3 0.00 0.00 0.00 73 1016.9
20260902153704 29 102 4.8 11.3 0.00 0.00 0.00 75 1016.8
20260902153205 29 106 9.7 14.5 0.00 0.00 0.00 76 1016.9
20260902152204 28 39 6.4 19.3 0.00 0.00 0.00 76 1017.0